Showing default

LEGION 5, 62900

Orbit data source: Space-Track

LEGION 5, 62900 is a payload satellite owned by Maxar Intel (US) in LEO that was launched on Tue, 04 Feb 2025 UTC via an FALCON 9 launch vehicle from the Air Force Eastern Test Range (AFETR). Payload-class satellites include a variety of spacecraft equipped with specific instruments for various scientific and technological missions. These include communications satellites like Starlink; space stations such as the ISS; scientific satellites like the Hubble; Earth observation satellites from companies like Planet Labs, Umbra, and HawkEye 360; GPS; miniature CubeSats for education and research; and military/defense satellites.

Loading next visibility...
Identifier
62900, 2025-025A
Orbit
LEO
Country
Flag of USUS
Related business
Manufacturer
Maxar Space Inf
Mission
Operational Commercial Imaging
Bus & Motor
LEGION, Unknown motor
Mass
~700 kg wet, 630 kg dry
Launch date (UTC)
2025-02-04 (1 year ago)
Launch vehicle
FALCON 9
Launch site
Air Force Eastern Test Range (AFETR)
Object type
Payload
Rocket body
Debris
Shape & HBR
Box + 1 Pan, 1.5 m
Radar Cross Section
9.079 m², Large (>1 m²)

Expand to show TLE details & history
Last TLE update: 10 hours ago

TLE from 10 hours ago
0 LEGION 5
1 62900U 25025A   26171.42819230  .00002927  00000-0  16366-3 0  9992
2 62900  45.0014 284.0375 0007238 175.2492 184.8456 15.15919620 74985
Epoch: 2026-06-20T10:16Z
TLE epoch observation values (Epoch: 2026-06-20T10:16:35.814Z)
Latitude
-0.00005°
Longitude
-138.75474°
Altitude
523.16 km
Speed
7.601 km/s
True Right ascension
18h 56m 08s
True Declination
0° 00' 00"
Sunlit
Object was in full shadow at epoch
Visualization orbit readout
Latitude
Unknown
Longitude
Unknown
Altitude
Unknown
Speed
Unknown
Apparent Right ascension
Unknown
Apparent Declination
Unknown
Sunlit
N/A
Visualization observer readout
Local Sidereal Time
07:23:47
Azimuth
Unknown
Elevation
Unknown
Doppler factor
Unknown
Orbital elements
Apogee altitude
524.782 km
Perigee altitude
514.796 km
Semi-major axis
6,897.926 km
Eccentricity
0.00072
Inclination
45.0014°
RAAN
284.0375°
Arg. of periapsis
175.2492°
True anomaly
184.8386°
Mean anomaly
184.8456°
Eccentric anomaly
184.8421°
Mean motion
3.78848 °/min
Orbital period
95.02 mins
BSTAR
0.00016366
Loading maneuver chart data...
Computing Atmospheric mass density...
Loading historical data...
Loading historical data...
Loading historical data...
Loading historical data...
Loading historical data...
Loading historical data...
Loading historical data...
Other satellites on launch #25 in the year 2025 (2025-02-04 UTC)

Documentation

Showing up to 5 results
|